| time (UTC) | temp F | wind direction | speed MPH | gust MPH | rain 1hr in | rain 24hr in | rain mn in | humidity % | barometer mb |
| 20260906100903 | 71 | 279 | 1.0 | 5.0 | 0.00 | 0.00 | 0.00 | 60 | 1022.7 |
| 20260906100402 | 71 | 285 | 2.0 | 6.0 | 0.00 | 0.00 | 0.00 | 56 | 1022.9 |
| 20260906095902 | 71 | 92 | 1.0 | 6.0 | 0.00 | 0.00 | 0.00 | 58 | 1023.0 |
| 20260906095403 | 71 | 255 | 1.0 | 3.0 | 0.00 | 0.00 | 0.00 | 58 | 1023.0 |
| 20260906094902 | 70 | 152 | 1.0 | 3.0 | 0.00 | 0.00 | 0.00 | 60 | 1023.0 |
| 20260906094404 | 70 | 39 | 1.0 | 4.0 | 0.00 | 0.00 | 0.00 | 60 | 1023.0 |
| 20260906093904 | 70 | 317 | 1.0 | 4.0 | 0.00 | 0.00 | 0.00 | 59 | 1023.1 |
| 20260906093403 | 70 | 317 | 1.0 | 3.0 | 0.00 | 0.00 | 0.00 | 60 | 1023.2 |
| 20260906092900 | 70 | 277 | 1.0 | 4.0 | 0.00 | 0.00 | 0.00 | 59 | 1023.1 |
| 20260906092359 | 70 | 135 | 1.0 | 4.0 | 0.00 | 0.00 | 0.00 | 59 | 1023.0 |
| 20260906091859 | 69 | 166 | 1.0 | 4.0 | 0.00 | 0.00 | 0.00 | 60 | 1023.0 |
| 20260906091400 | 69 | 91 | 1.0 | 4.0 | 0.00 | 0.00 | 0.00 | 59 | 1023.1 |
| 20260906091142 | 68 | 255 | 2.0 | 6.0 | 0.00 | 0.00 | 0.00 | 62 | 1023.1 |
| 20260906090358 | 69 | 136 | 2.0 | 8.0 | 0.00 | 0.00 | 0.00 | 59 | 1023.2 |
| 20260906085858 | 69 | 179 | 2.0 | 8.0 | 0.00 | 0.00 | 0.00 | 60 | 1023.3 |
| 20260906085357 | 69 | 77 | 2.0 | 6.0 | 0.00 | 0.00 | 0.00 | 60 | 1023.4 |
| 20260906085138 | 68 | 103 | 2.0 | 5.0 | 0.00 | 0.00 | 0.00 | 61 | 1023.4 |
| 20260906084356 | 68 | 120 | 2.0 | 5.0 | 0.00 | 0.00 | 0.00 | 60 | 1023.2 |
| 20260906083856 | 68 | 141 | 1.0 | 4.0 | 0.00 | 0.00 | 0.00 | 61 | 1023.3 |
| 20260906083355 | 68 | 98 | 1.0 | 3.0 | 0.00 | 0.00 | 0.00 | 64 | 1023.3 |
| 20260906082856 | 67 | 89 | 1.0 | 3.0 | 0.00 | 0.00 | 0.00 | 65 | 1023.3 |
| 20260906082350 | 67 | 158 | 0.0 | 3.0 | 0.00 | 0.00 | 0.00 | 64 | 1023.4 |
| 20260906081848 | 67 | 129 | 1.0 | 5.0 | 0.00 | 0.00 | 0.00 | 73 | 1023.5 |
| 20260906081346 | 66 | 131 | 1.0 | 5.0 | 0.00 | 0.00 | 0.00 | 69 | 1023.5 |
| 20260906080844 | 65 | 149 | 0.0 | 1.0 | 0.00 | 0.00 | 0.00 | 72 | 1023.5 |
| 20260906080342 | 64 | 15 | 0.0 | 0.0 | 0.00 | 0.00 | 0.00 | 77 | 1023.6 |
| 20260906075840 | 64 | 15 | 0.0 | 0.0 | 0.00 | 0.00 | 0.00 | 80 | 1023.7 |
| 20260906075621 | 63 | 15 | 0.0 | 0.0 | 0.00 | 0.00 | 0.00 | 83 | 1023.6 |
| 20260906074837 | 62 | 15 | 0.0 | 0.0 | 0.00 | 0.00 | 0.00 | 86 | 1023.7 |
| 20260906074336 | 61 | 15 | 0.0 | 0.0 | 0.00 | 0.00 | 0.00 | 87 | 1023.7 |
| 20260906073836 | 60 | 15 | 0.0 | 0.0 | 0.00 | 0.00 | 0.00 | 90 | 1023.7 |
| 20260906073334 | 59 | 15 | 0.0 | 0.0 | 0.00 | 0.00 | 0.00 | 90 | 1023.6 |
| 20260906072832 | 59 | 15 | 0.0 | 0.0 | 0.00 | 0.00 | 0.00 | 91 | 1023.6 |
| 20260906072608 | 58 | 15 | 0.0 | 0.0 | 0.00 | 0.00 | 0.00 | 93 | 1023.5 |
| 20260906071831 | 58 | 15 | 0.0 | 0.0 | 0.00 | 0.00 | 0.00 | 94 | 1023.5 |
| 20260906071610 | 58 | 15 | 0.0 | 0.0 | 0.00 | 0.00 | 0.00 | 94 | 1023.5 |
| 20260906070829 | 57 | 15 | 0.0 | 0.0 | 0.00 | 0.00 | 0.00 | 96 | 1023.5 |
| 20260906070616 | 56 | 15 | 0.0 | 0.0 | 0.00 | 0.00 | 0.00 | 97 | 1023.6 |
| 20260906065829 | 56 | 15 | 0.0 | 1.0 | 0.00 | 0.00 | 0.00 | 98 | 1023.7 |
| 20260906065328 | 56 | 15 | 0.0 | 1.0 | 0.00 | 0.00 | 0.00 | 98 | 1023.6 |
| 20260906064829 | 55 | 15 | 0.0 | 0.0 | 0.00 | 0.00 | 0.00 | 98 | 1023.7 |
| 20260906064329 | 54 | 15 | 0.0 | 0.0 | 0.00 | 0.00 | 0.00 | 98 | 1023.7 |
| 20260906063828 | 53 | 15 | 0.0 | 0.0 | 0.00 | 0.00 | 0.00 | 98 | 1023.7 |
| 20260906063326 | 52 | 15 | 0.0 | 0.0 | 0.00 | 0.00 | 0.00 | 98 | 1023.7 |
| 20260906062824 | 52 | 15 | 0.0 | 0.0 | 0.00 | 0.00 | 0.00 | 98 | 1023.7 |
| 20260906062324 | 51 | 15 | 0.0 | 0.0 | 0.00 | 0.00 | 0.00 | 98 | 1023.7 |
| 20260906061824 | 50 | 15 | 0.0 | 0.0 | 0.00 | 0.00 | 0.00 | 98 | 1023.6 |
| 20260906061322 | 49 | 15 | 0.0 | 0.0 | 0.00 | 0.00 | 0.00 | 98 | 1023.7 |
| 20260906060823 | 48 | 15 | 0.0 | 0.0 | 0.00 | 0.00 | 0.00 | 97 | 1023.7 |
| 20260906060320 | 48 | 15 | 0.0 | 0.0 | 0.00 | 0.00 | 0.00 | 97 | 1023.8 |
| 20260906055819 | 48 | 15 | 0.0 | 0.0 | 0.00 | 0.00 | 0.00 | 97 | 1023.7 |
| 20260906055316 | 48 | 15 | 0.0 | 0.0 | 0.00 | 0.00 | 0.00 | 97 | 1023.7 |
| 20260906054814 | 48 | 15 | 0.0 | 0.0 | 0.00 | 0.00 | 0.00 | 97 | 1023.8 |
| 20260906054312 | 48 | 15 | 0.0 | 0.0 | 0.00 | 0.00 | 0.00 | 97 | 1023.7 |
| 20260906054100 | 48 | 15 | 0.0 | 0.0 | 0.00 | 0.00 | 0.00 | 97 | 1023.6 |
| 20260906053311 | 48 | 15 | 0.0 | 0.0 | 0.00 | 0.00 | 0.00 | 97 | 1023.5 |
| 20260906052811 | 48 | 15 | 0.0 | 0.0 | 0.00 | 0.00 | 0.00 | 97 | 1023.4 |
| 20260906052312 | 48 | 15 | 0.0 | 0.0 | 0.00 | 0.00 | 0.00 | 97 | 1023.5 |
| 20260906051808 | 48 | 15 | 0.0 | 0.0 | 0.00 | 0.00 | 0.00 | 97 | 1023.5 |
| 20260906051306 | 48 | 15 | 0.0 | 0.0 | 0.00 | 0.00 | 0.00 | 97 | 1023.6 |
| 20260906050804 | 48 | 15 | 0.0 | 0.0 | 0.00 | 0.00 | 0.00 | 97 | 1023.5 |
| 20260906050315 | 48 | 15 | 0.0 | 0.0 | 0.00 | 0.00 | 0.00 | 97 | 1023.5 |
| 20260906045803 | 48 | 15 | 0.0 | 0.0 | 0.00 | 0.00 | 0.00 | 96 | 1023.7 |
| 20260906045305 | 48 | 15 | 0.0 | 1.0 | 0.00 | 0.00 | 0.00 | 97 | 1023.7 |
| 20260906044804 | 48 | 15 | 0.0 | 1.0 | 0.00 | 0.00 | 0.00 | 96 | 1023.7 |
| 20260906044304 | 48 | 15 | 0.0 | 0.0 | 0.00 | 0.00 | 0.00 | 97 | 1023.8 |
| 20260906043804 | 48 | 15 | 0.0 | 0.0 | 0.00 | 0.00 | 0.00 | 97 | 1023.7 |
| 20260906043304 | 48 | 15 | 0.0 | 0.0 | 0.00 | 0.00 | 0.00 | 97 | 1023.8 |
| 20260906042803 | 48 | 15 | 0.0 | 0.0 | 0.00 | 0.00 | 0.00 | 96 | 1023.9 |
| 20260906042306 | 48 | 15 | 0.0 | 0.0 | 0.00 | 0.00 | 0.00 | 97 | 1024.0 |
| 20260906041803 | 48 | 15 | 0.0 | 0.0 | 0.00 | 0.00 | 0.00 | 96 | 1024.0 |
| 20260906041302 | 48 | 15 | 0.0 | 0.0 | 0.00 | 0.00 | 0.00 | 96 | 1024.1 |
| 20260906040802 | 48 | 15 | 0.0 | 0.0 | 0.00 | 0.00 | 0.00 | 96 | 1024.0 |
| 20260906040302 | 48 | 15 | 0.0 | 0.0 | 0.00 | 0.00 | 0.00 | 96 | 1024.0 |
| 20260906035802 | 48 | 15 | 0.0 | 0.0 | 0.00 | 0.00 | 0.00 | 96 | 1024.1 |
| 20260906035305 | 48 | 15 | 0.0 | 0.0 | 0.00 | 0.00 | 0.00 | 96 | 1023.9 |
| 20260906034802 | 48 | 15 | 0.0 | 0.0 | 0.00 | 0.00 | 0.00 | 96 | 1024.0 |
| 20260906034302 | 48 | 15 | 0.0 | 0.0 | 0.00 | 0.00 | 0.00 | 96 | 1024.1 |
| 20260906033757 | 48 | 15 | 0.0 | 0.0 | 0.00 | 0.00 | 0.00 | 96 | 1024.0 |
| 20260906033251 | 48 | 15 | 0.0 | 0.0 | 0.00 | 0.00 | 0.00 | 96 | 1024.0 |
| 20260906032744 | 48 | 15 | 0.0 | 0.0 | 0.00 | 0.00 | 0.00 | 96 | 1024.0 |
| 20260906032239 | 48 | 15 | 0.0 | 0.0 | 0.00 | 0.00 | 0.00 | 96 | 1023.9 |
| 20260906031732 | 48 | 15 | 0.0 | 0.0 | 0.00 | 0.00 | 0.00 | 96 | 1023.8 |
| 20260906031232 | 48 | 15 | 0.0 | 0.0 | 0.00 | 0.00 | 0.00 | 96 | 1024.0 |
| 20260906030731 | 48 | 15 | 0.0 | 0.0 | 0.00 | 0.00 | 0.00 | 96 | 1023.9 |
| 20260906030232 | 49 | 15 | 0.0 | 0.0 | 0.00 | 0.00 | 0.00 | 96 | 1023.9 |
| 20260906025732 | 49 | 15 | 0.0 | 0.0 | 0.00 | 0.00 | 0.00 | 96 | 1024.0 |
| 20260906025558 | 49 | 15 | 0.0 | 0.0 | 0.00 | 0.00 | 0.00 | 96 | 1024.3 |
| 20260906025554 | 49 | 15 | 0.0 | 0.0 | 0.00 | 0.00 | 0.00 | 96 | 1024.2 |
| 20260906025549 | 49 | 15 | 0.0 | 0.0 | 0.00 | 0.00 | 0.00 | 96 | 1024.2 |
| 20260906023722 | 49 | 15 | 0.0 | 0.0 | 0.00 | 0.00 | 0.00 | 96 | 1024.3 |
| 20260906023221 | 49 | 15 | 0.0 | 0.0 | 0.00 | 0.00 | 0.00 | 96 | 1024.4 |
| 20260906022759 | 49 | 15 | 0.0 | 0.0 | 0.00 | 0.00 | 0.00 | 96 | 1024.4 |
| 20260906022752 | 49 | 15 | 0.0 | 0.0 | 0.00 | 0.00 | 0.00 | 96 | 1024.4 |
| 20260906021714 | 49 | 15 | 0.0 | 1.0 | 0.00 | 0.00 | 0.00 | 96 | 1024.3 |
| 20260906021215 | 49 | 15 | 0.0 | 1.0 | 0.00 | 0.00 | 0.00 | 96 | 1024.1 |
| 20260906020715 | 49 | 15 | 0.0 | 0.0 | 0.00 | 0.00 | 0.00 | 96 | 1024.2 |
| 20260906020441 | 49 | 15 | 0.0 | 0.0 | 0.00 | 0.00 | 0.00 | 96 | 1024.2 |
| 20260906015945 | 49 | 15 | 0.0 | 0.0 | 0.00 | 0.00 | 0.00 | 96 | 1024.3 |
| 20260906015209 | 49 | 15 | 0.0 | 0.0 | 0.00 | 0.00 | 0.00 | 96 | 1024.2 |
| 20260906014707 | 49 | 15 | 0.0 | 0.0 | 0.00 | 0.00 | 0.00 | 96 | 1024.2 |
| 20260906014204 | 49 | 15 | 0.0 | 0.0 | 0.00 | 0.00 | 0.00 | 96 | 1024.1 |
| 20260906013703 | 49 | 15 | 0.0 | 0.0 | 0.00 | 0.00 | 0.00 | 95 | 1024.0 |
| 20260906013438 | 49 | 15 | 0.0 | 0.0 | 0.00 | 0.00 | 0.00 | 95 | 1023.9 |
| 20260906012928 | 49 | 15 | 0.0 | 0.0 | 0.00 | 0.00 | 0.00 | 95 | 1023.9 |
| 20260906012203 | 50 | 15 | 0.0 | 0.0 | 0.00 | 0.00 | 0.00 | 95 | 1023.8 |
| 20260906011703 | 50 | 15 | 0.0 | 0.0 | 0.00 | 0.00 | 0.00 | 95 | 1023.8 |
| 20260906011204 | 50 | 15 | 0.0 | 0.0 | 0.00 | 0.00 | 0.00 | 95 | 1023.8 |
| 20260906010928 | 50 | 15 | 0.0 | 0.0 | 0.00 | 0.00 | 0.00 | 95 | 1024.0 |
| 20260906010158 | 50 | 15 | 0.0 | 0.0 | 0.00 | 0.00 | 0.00 | 95 | 1024.1 |
| 20260906005657 | 50 | 15 | 0.0 | 0.0 | 0.00 | 0.00 | 0.00 | 95 | 1024.1 |
| 20260906005157 | 50 | 15 | 0.0 | 0.0 | 0.00 | 0.00 | 0.00 | 95 | 1024.2 |
| 20260906004653 | 50 | 15 | 0.0 | 0.0 | 0.00 | 0.00 | 0.00 | 95 | 1024.1 |
| 20260906004150 | 50 | 15 | 0.0 | 0.0 | 0.00 | 0.00 | 0.00 | 95 | 1024.1 |
| 20260906003919 | 50 | 15 | 0.0 | 0.0 | 0.00 | 0.00 | 0.00 | 95 | 1023.9 |
| 20260906003416 | 50 | 15 | 0.0 | 0.0 | 0.00 | 0.00 | 0.00 | 95 | 1024.0 |
| 20260906002644 | 50 | 15 | 0.0 | 0.0 | 0.00 | 0.00 | 0.00 | 95 | 1024.0 |
| 20260906002414 | 51 | 15 | 0.0 | 0.0 | 0.00 | 0.00 | 0.00 | 95 | 1023.9 |
| 20260906001707 | 51 | 15 | 0.0 | 0.0 | 0.00 | 0.00 | 0.00 | 95 | 1023.9 |
| 20260906001658 | 51 | 15 | 0.0 | 0.0 | 0.00 | 0.00 | 0.00 | 95 | 1024.0 |
| 20260906000646 | 51 | 15 | 0.0 | 0.0 | 0.00 | 0.00 | 0.00 | 95 | 1024.0 |
| 20260906000146 | 51 | 15 | 0.0 | 0.0 | 0.00 | 0.00 | 0.00 | 95 | 1024.0 |
| 20260905235642 | 51 | 15 | 0.0 | 0.0 | 0.00 | 0.00 | 0.00 | 95 | 1024.1 |
| 20260905235140 | 51 | 15 | 0.0 | 0.0 | 0.00 | 0.00 | 0.00 | 95 | 1024.0 |
| 20260905234657 | 51 | 15 | 0.0 | 0.0 | 0.00 | 0.00 | 0.00 | 94 | 1024.0 |
| 20260905234652 | 51 | 15 | 0.0 | 0.0 | 0.00 | 0.00 | 0.00 | 94 | 1024.0 |
| 20260905233633 | 51 | 15 | 0.0 | 0.0 | 0.00 | 0.00 | 0.00 | 94 | 1024.0 |
| 20260905233128 | 51 | 15 | 0.0 | 0.0 | 0.00 | 0.00 | 0.00 | 94 | 1023.9 |
| 20260905232623 | 51 | 15 | 0.0 | 0.0 | 0.00 | 0.00 | 0.00 | 94 | 1024.0 |
| 20260905232343 | 51 | 15 | 0.0 | 0.0 | 0.00 | 0.00 | 0.00 | 94 | 1024.0 |
| 20260905231623 | 52 | 15 | 0.0 | 0.0 | 0.00 | 0.00 | 0.00 | 94 | 1023.9 |
| 20260905231123 | 52 | 15 | 0.0 | 0.0 | 0.00 | 0.00 | 0.00 | 94 | 1024.0 |
| 20260905230622 | 52 | 15 | 0.0 | 0.0 | 0.00 | 0.00 | 0.00 | 94 | 1023.9 |
| 20260905230122 | 52 | 15 | 0.0 | 0.0 | 0.00 | 0.00 | 0.00 | 94 | 1023.9 |
| 20260905225622 | 52 | 15 | 0.0 | 0.0 | 0.00 | 0.00 | 0.00 | 93 | 1023.9 |
| 20260905225120 | 52 | 15 | 0.0 | 0.0 | 0.00 | 0.00 | 0.00 | 93 | 1023.9 |
| 20260905224620 | 52 | 15 | 0.0 | 0.0 | 0.00 | 0.00 | 0.00 | 94 | 1023.9 |
| 20260905224117 | 52 | 15 | 0.0 | 0.0 | 0.00 | 0.00 | 0.00 | 93 | 1024.0 |
| 20260905223619 | 52 | 15 | 0.0 | 0.0 | 0.00 | 0.00 | 0.00 | 93 | 1023.9 |
| 20260905223119 | 53 | 15 | 0.0 | 0.0 | 0.00 | 0.00 | 0.00 | 93 | 1023.9 |
| 20260905222616 | 53 | 15 | 0.0 | 0.0 | 0.00 | 0.00 | 0.00 | 93 | 1023.6 |
| 20260905222116 | 53 | 15 | 0.0 | 0.0 | 0.00 | 0.00 | 0.00 | 93 | 1023.6 |
| 20260905221616 | 53 | 15 | 0.0 | 0.0 | 0.00 | 0.00 | 0.00 | 93 | 1023.5 |
| 20260905221118 | 53 | 15 | 0.0 | 0.0 | 0.00 | 0.00 | 0.00 | 93 | 1023.5 |
| 20260905220610 | 53 | 15 | 0.0 | 0.0 | 0.00 | 0.00 | 0.00 | 93 | 1023.6 |
| 20260905220110 | 53 | 15 | 0.0 | 0.0 | 0.00 | 0.00 | 0.00 | 92 | 1023.6 |
| 20260905215607 | 53 | 15 | 0.0 | 0.0 | 0.00 | 0.00 | 0.00 | 92 | 1023.7 |
| 20260905215106 | 53 | 15 | 0.0 | 0.0 | 0.00 | 0.00 | 0.00 | 92 | 1023.8 |
| 20260905214603 | 54 | 15 | 0.0 | 0.0 | 0.00 | 0.00 | 0.00 | 92 | 1023.7 |
| 20260905214102 | 54 | 15 | 0.0 | 0.0 | 0.00 | 0.00 | 0.00 | 92 | 1023.7 |
| 20260905213603 | 54 | 15 | 0.0 | 0.0 | 0.00 | 0.00 | 0.00 | 92 | 1023.7 |
| 20260905213103 | 54 | 15 | 0.0 | 0.0 | 0.00 | 0.00 | 0.00 | 91 | 1023.6 |
| 20260905212602 | 54 | 15 | 0.0 | 0.0 | 0.00 | 0.00 | 0.00 | 91 | 1023.6 |
| 20260905212103 | 54 | 15 | 0.0 | 0.0 | 0.00 | 0.00 | 0.00 | 91 | 1023.6 |
| 20260905211603 | 54 | 15 | 0.0 | 0.0 | 0.00 | 0.00 | 0.00 | 91 | 1023.4 |
| 20260905211102 | 55 | 15 | 0.0 | 0.0 | 0.00 | 0.00 | 0.00 | 90 | 1023.4 |
| 20260905210823 | 55 | 15 | 0.0 | 0.0 | 0.00 | 0.00 | 0.00 | 90 | 1023.3 |
| 20260905210059 | 55 | 15 | 0.0 | 0.0 | 0.00 | 0.00 | 0.00 | 89 | 1023.3 |
| 20260905205558 | 55 | 15 | 0.0 | 0.0 | 0.00 | 0.00 | 0.00 | 89 | 1023.3 |
| 20260905205057 | 55 | 15 | 0.0 | 0.0 | 0.00 | 0.00 | 0.00 | 88 | 1023.2 |
| 20260905204557 | 56 | 15 | 0.0 | 0.0 | 0.00 | 0.00 | 0.00 | 88 | 1023.2 |
| 20260905204109 | 56 | 15 | 0.0 | 0.0 | 0.00 | 0.00 | 0.00 | 87 | 1023.2 |
| 20260905204103 | 56 | 15 | 0.0 | 0.0 | 0.00 | 0.00 | 0.00 | 88 | 1023.2 |
| 20260905203053 | 56 | 15 | 0.0 | 0.0 | 0.00 | 0.00 | 0.00 | 87 | 1023.1 |
| 20260905202553 | 57 | 15 | 0.0 | 0.0 | 0.00 | 0.00 | 0.00 | 86 | 1023.1 |
| 20260905202318 | 57 | 15 | 0.0 | 0.0 | 0.00 | 0.00 | 0.00 | 86 | 1023.0 |
| 20260905201553 | 57 | 15 | 0.0 | 0.0 | 0.00 | 0.00 | 0.00 | 85 | 1023.0 |
| 20260905201053 | 58 | 15 | 0.0 | 0.0 | 0.00 | 0.00 | 0.00 | 85 | 1023.0 |
| 20260905200551 | 58 | 15 | 0.0 | 0.0 | 0.00 | 0.00 | 0.00 | 84 | 1023.1 |
| 20260905200051 | 58 | 15 | 0.0 | 0.0 | 0.00 | 0.00 | 0.00 | 83 | 1023.1 |
| 20260905195549 | 59 | 15 | 0.0 | 0.0 | 0.00 | 0.00 | 0.00 | 82 | 1023.0 |
| 20260905195049 | 59 | 15 | 0.0 | 0.0 | 0.00 | 0.00 | 0.00 | 82 | 1022.9 |
| 20260905194549 | 60 | 15 | 0.0 | 0.0 | 0.00 | 0.00 | 0.00 | 81 | 1023.0 |
| 20260905194049 | 60 | 15 | 0.0 | 0.0 | 0.00 | 0.00 | 0.00 | 80 | 1023.0 |
| 20260905193814 | 61 | 15 | 0.0 | 0.0 | 0.00 | 0.00 | 0.00 | 79 | 1023.0 |
| 20260905193048 | 61 | 15 | 0.0 | 0.0 | 0.00 | 0.00 | 0.00 | 79 | 1022.9 |
| 20260905192549 | 62 | 15 | 0.0 | 0.0 | 0.00 | 0.00 | 0.00 | 78 | 1022.8 |
| 20260905192048 | 62 | 15 | 0.0 | 2.0 | 0.00 | 0.00 | 0.00 | 75 | 1022.9 |
| 20260905191548 | 62 | 15 | 0.0 | 2.0 | 0.00 | 0.00 | 0.00 | 74 | 1022.8 |
| 20260905191049 | 62 | 15 | 0.0 | 0.0 | 0.00 | 0.00 | 0.00 | 73 | 1022.7 |
| 20260905190817 | 63 | 15 | 0.0 | 0.0 | 0.00 | 0.00 | 0.00 | 73 | 1022.7 |
| 20260905190047 | 63 | 15 | 0.0 | 2.0 | 0.00 | 0.00 | 0.00 | 72 | 1022.6 |
| 20260905185544 | 63 | 15 | 0.0 | 2.0 | 0.00 | 0.00 | 0.00 | 71 | 1022.5 |
| 20260905185308 | 64 | 15 | 0.0 | 1.0 | 0.00 | 0.00 | 0.00 | 70 | 1022.4 |
| 20260905184546 | 64 | 15 | 0.0 | 3.0 | 0.00 | 0.00 | 0.00 | 70 | 1022.5 |
| 20260905184045 | 64 | 15 | 0.0 | 3.0 | 0.00 | 0.00 | 0.00 | 69 | 1022.5 |
| 20260905183544 | 65 | 9 | 0.0 | 1.0 | 0.00 | 0.00 | 0.00 | 68 | 1022.4 |
| 20260905183043 | 65 | 9 | 1.0 | 3.0 | 0.00 | 0.00 | 0.00 | 67 | 1022.3 |
| 20260905182540 | 65 | 11 | 1.0 | 3.0 | 0.00 | 0.00 | 0.00 | 67 | 1022.3 |
| 20260905182039 | 66 | 359 | 1.0 | 4.0 | 0.00 | 0.00 | 0.00 | 67 | 1022.2 |
| 20260905181805 | 66 | 1 | 1.0 | 4.0 | 0.00 | 0.00 | 0.00 | 66 | 1022.1 |
| 20260905181039 | 66 | 1 | 1.0 | 5.0 | 0.00 | 0.00 | 0.00 | 66 | 1022.1 |
| 20260905180758 | 66 | 333 | 1.0 | 5.0 | 0.00 | 0.00 | 0.00 | 65 | 1022.1 |
| 20260905180035 | 67 | 359 | 2.0 | 5.0 | 0.00 | 0.00 | 0.00 | 65 | 1022.1 |
| 20260905175536 | 67 | 354 | 1.0 | 5.0 | 0.00 | 0.00 | 0.00 | 64 | 1022.1 |
| 20260905175033 | 67 | 335 | 1.0 | 5.0 | 0.00 | 0.00 | 0.00 | 65 | 1022.0 |
| 20260905174531 | 67 | 312 | 1.0 | 4.0 | 0.00 | 0.00 | 0.00 | 64 | 1021.9 |
| 20260905174031 | 68 | 4 | 1.0 | 3.0 | 0.00 | 0.00 | 0.00 | 64 | 1021.9 |
| 20260905173748 | 68 | 20 | 1.0 | 5.0 | 0.00 | 0.00 | 0.00 | 64 | 1021.9 |
| 20260905173023 | 68 | 331 | 2.0 | 5.0 | 0.00 | 0.00 | 0.00 | 63 | 1021.8 |
| 20260905172522 | 68 | 34 | 1.0 | 5.0 | 0.00 | 0.00 | 0.00 | 62 | 1021.8 |
| 20260905172020 | 69 | 0 | 0.0 | 5.0 | 0.00 | 0.00 | 0.00 | 62 | 1021.7 |
| 20260905171520 | 69 | 44 | 0.0 | 2.0 | 0.00 | 0.00 | 0.00 | 63 | 1021.6 |
| 20260905171252 | 69 | 359 | 1.0 | 5.0 | 0.00 | 0.00 | 0.00 | 62 | 1021.6 |
| 20260905170521 | 70 | 291 | 1.0 | 5.0 | 0.00 | 0.00 | 0.00 | 61 | 1021.6 |
| 20260905170027 | 70 | 13 | 2.0 | 7.0 | 0.00 | 0.01 | 0.00 | 60 | 1021.5 |
| 20260905165752 | 70 | 26 | 1.0 | 6.0 | 0.00 | 0.01 | 0.00 | 60 | 1021.5 |
| 20260905165019 | 70 | 313 | 1.0 | 4.0 | 0.00 | 0.01 | 0.00 | 61 | 1021.4 |
| 20260905164521 | 70 | 45 | 1.0 | 3.0 | 0.00 | 0.01 | 0.00 | 61 | 1021.3 |
| 20260905164253 | 70 | 0 | 1.0 | 4.0 | 0.00 | 0.01 | 0.00 | 61 | 1021.3 |
| 20260905163519 | 70 | 308 | 2.0 | 5.0 | 0.00 | 0.01 | 0.00 | 60 | 1021.2 |
| 20260905163021 | 71 | 297 | 2.0 | 5.0 | 0.00 | 0.01 | 0.00 | 59 | 1021.2 |
| 20260905162518 | 71 | 318 | 2.0 | 6.0 | 0.00 | 0.02 | 0.00 | 58 | 1021.2 |
| 20260905162019 | 71 | 72 | 2.0 | 6.0 | 0.00 | 0.02 | 0.00 | 59 | 1021.1 |
| 20260905161520 | 71 | 293 | 1.0 | 4.0 | 0.00 | 0.02 | 0.00 | 58 | 1021.0 |
| 20260905161020 | 71 | 203 | 1.0 | 4.0 | 0.00 | 0.02 | 0.00 | 58 | 1021.1 |
| 20260905160505 | 71 | 325 | 1.0 | 5.0 | 0.00 | 0.03 | 0.00 | 57 | 1021.1 |
| 20260905160010 | 72 | 288 | 2.0 | 8.0 | 0.00 | 0.03 | 0.00 | 58 | 1021.0 |
| 20260905155505 | 72 | 267 | 2.0 | 8.0 | 0.00 | 0.04 | 0.00 | 57 | 1020.9 |
| 20260905154957 | 72 | 10 | 2.0 | 4.0 | 0.00 | 0.05 | 0.00 | 58 | 1020.8 |
| 20260905154450 | 72 | 32 | 1.0 | 4.0 | 0.00 | 0.07 | 0.00 | 58 | 1020.8 |
| 20260905153944 | 73 | 263 | 2.0 | 9.0 | 0.00 | 0.12 | 0.00 | 59 | 1020.8 |
| 20260905153442 | 73 | 296 | 2.0 | 9.0 | 0.00 | 0.16 | 0.00 | 58 | 1020.8 |
| 20260905152942 | 73 | 346 | 2.0 | 7.0 | 0.00 | 0.17 | 0.00 | 58 | 1020.8 |
| 20260905152440 | 73 | 276 | 3.0 | 10.0 | 0.00 | 0.18 | 0.00 | 59 | 1020.8 |
| 20260905151941 | 72 | 278 | 2.0 | 10.0 | 0.00 | 0.20 | 0.00 | 59 | 1020.7 |
| 20260905151732 | 72 | 262 | 2.0 | 9.0 | 0.00 | 0.21 | 0.00 | 60 | 1020.6 |
| 20260905150938 | 72 | 289 | 3.0 | 10.0 | 0.00 | 0.21 | 0.00 | 61 | 1020.5 |
| 20260905150438 | 71 | 311 | 3.0 | 10.0 | 0.00 | 0.21 | 0.00 | 61 | 1020.5 |
| 20260905145938 | 71 | 301 | 2.0 | 9.0 | 0.00 | 0.21 | 0.00 | 62 | 1020.5 |
| 20260905145436 | 71 | 268 | 2.0 | 6.0 | 0.00 | 0.21 | 0.00 | 62 | 1020.6 |
| 20260905144936 | 71 | 314 | 2.0 | 8.0 | 0.00 | 0.21 | 0.00 | 64 | 1020.6 |
| 20260905144436 | 71 | 194 | 2.0 | 8.0 | 0.00 | 0.21 | 0.00 | 63 | 1020.6 |
| 20260905143934 | 70 | 68 | 2.0 | 11.0 | 0.00 | 0.21 | 0.00 | 64 | 1020.5 |
| 20260905143434 | 71 | 302 | 3.0 | 11.0 | 0.00 | 0.21 | 0.00 | 63 | 1020.4 |
| 20260905142934 | 71 | 179 | 3.0 | 10.0 | 0.00 | 0.21 | 0.00 | 63 | 1020.4 |
| 20260905142432 | 71 | 283 | 2.0 | 8.0 | 0.00 | 0.21 | 0.00 | 64 | 1020.4 |
| 20260905141932 | 70 | 340 | 2.0 | 9.0 | 0.00 | 0.21 | 0.00 | 65 | 1020.3 |
| 20260905141434 | 70 | 294 | 3.0 | 9.0 | 0.00 | 0.21 | 0.00 | 64 | 1020.4 |
| 20260905140932 | 70 | 275 | 3.0 | 7.0 | 0.00 | 0.21 | 0.00 | 63 | 1020.4 |
| 20260905140430 | 71 | 230 | 3.0 | 6.0 | 0.00 | 0.21 | 0.00 | 63 | 1020.3 |
| 20260905135931 | 71 | 263 | 3.0 | 7.0 | 0.00 | 0.21 | 0.00 | 63 | 1020.3 |
| 20260905135430 | 71 | 184 | 3.0 | 10.0 | 0.00 | 0.21 | 0.00 | 63 | 1020.3 |
| 20260905134932 | 71 | 335 | 3.0 | 10.0 | 0.00 | 0.21 | 0.00 | 64 | 1020.2 |
| 20260905134716 | 71 | 54 | 3.0 | 10.0 | 0.00 | 0.21 | 0.00 | 64 | 1020.2 |
| 20260905133930 | 71 | 219 | 3.0 | 10.0 | 0.00 | 0.21 | 0.00 | 62 | 1020.3 |
| 20260905133430 | 71 | 285 | 3.0 | 9.0 | 0.00 | 0.21 | 0.00 | 63 | 1020.2 |
| 20260905132930 | 71 | 220 | 3.0 | 9.0 | 0.00 | 0.21 | 0.00 | 65 | 1020.2 |
| 20260905132433 | 71 | 330 | 2.0 | 10.0 | 0.00 | 0.21 | 0.00 | 64 | 1020.2 |
| 20260905131930 | 71 | 229 | 3.0 | 10.0 | 0.00 | 0.21 | 0.00 | 63 | 1020.1 |
| 20260905131430 | 71 | 315 | 3.0 | 10.0 | 0.00 | 0.21 | 0.00 | 64 | 1020.1 |
| 20260905130930 | 71 | 268 | 2.0 | 7.0 | 0.00 | 0.21 | 0.00 | 65 | 1020.1 |
| 20260905130430 | 71 | 278 | 2.0 | 7.0 | 0.00 | 0.21 | 0.00 | 66 | 1020.1 |
| 20260905125928 | 70 | 221 | 3.0 | 10.0 | 0.00 | 0.21 | 0.00 | 64 | 1020.1 |
| 20260905125429 | 70 | 329 | 4.0 | 10.0 | 0.00 | 0.21 | 0.00 | 65 | 1020.1 |
| 20260905124922 | 70 | 321 | 3.0 | 9.0 | 0.00 | 0.21 | 0.00 | 67 | 1020.0 |
| 20260905124422 | 69 | 284 | 3.0 | 9.0 | 0.00 | 0.21 | 0.00 | 68 | 1020.1 |
| 20260905123923 | 69 | 319 | 3.0 | 9.0 | 0.00 | 0.21 | 0.00 | 66 | 1020.0 |
| 20260905123422 | 69 | 335 | 3.0 | 11.0 | 0.00 | 0.21 | 0.00 | 67 | 1020.0 |
| 20260905122922 | 69 | 331 | 3.0 | 11.0 | 0.00 | 0.21 | 0.00 | 66 | 1020.0 |
| 20260905122422 | 69 | 314 | 3.0 | 8.0 | 0.00 | 0.21 | 0.00 | 68 | 1020.0 |
| 20260905121922 | 69 | 295 | 3.0 | 7.0 | 0.00 | 0.21 | 0.00 | 68 | 1020.1 |
| 20260905121422 | 69 | 153 | 3.0 | 7.0 | 0.00 | 0.21 | 0.00 | 67 | 1020.0 |
| 20260905120922 | 69 | 311 | 3.0 | 7.0 | 0.00 | 0.21 | 0.00 | 67 | 1019.9 |
| 20260905120423 | 69 | 217 | 3.0 | 9.0 | 0.00 | 0.21 | 0.00 | 67 | 1019.8 |
| 20260905115922 | 70 | 284 | 2.0 | 9.0 | 0.00 | 0.21 | 0.00 | 67 | 1019.9 |
| 20260905115422 | 69 | 0 | 4.0 | 10.0 | 0.00 | 0.21 | 0.00 | 69 | 1019.8 |
| 20260905114923 | 69 | 319 | 4.0 | 14.0 | 0.00 | 0.21 | 0.00 | 69 | 1019.9 |
| 20260905114422 | 69 | 296 | 3.0 | 14.0 | 0.00 | 0.21 | 0.00 | 68 | 1019.8 |
| 20260905113921 | 69 | 277 | 3.0 | 8.0 | 0.00 | 0.21 | 0.00 | 68 | 1019.7 |
| 20260905113422 | 69 | 266 | 3.0 | 8.0 | 0.00 | 0.21 | 0.00 | 70 | 1019.6 |
| 20260905113214 | 68 | 200 | 3.0 | 6.0 | 0.00 | 0.21 | 0.00 | 69 | 1019.7 |
| 20260905112427 | 68 | 333 | 2.0 | 9.0 | 0.00 | 0.21 | 0.00 | 70 | 1019.7 |
| 20260905111926 | 68 | 165 | 3.0 | 10.0 | 0.00 | 0.21 | 0.00 | 70 | 1019.7 |
| 20260905111420 | 69 | 295 | 3.0 | 10.0 | 0.00 | 0.21 | 0.00 | 70 | 1019.6 |
| 20260905110910 | 68 | 229 | 3.0 | 7.0 | 0.00 | 0.21 | 0.00 | 70 | 1019.6 |
| 20260905110403 | 68 | 359 | 3.0 | 7.0 | 0.00 | 0.21 | 0.00 | 71 | 1019.8 |
| 20260905105902 | 68 | 165 | 3.0 | 7.0 | 0.00 | 0.21 | 0.00 | 70 | 1019.7 |
| 20260905105401 | 68 | 304 | 3.0 | 7.0 | 0.00 | 0.21 | 0.00 | 73 | 1019.6 |
| 20260905104901 | 68 | 293 | 3.0 | 6.0 | 0.00 | 0.21 | 0.00 | 74 | 1019.6 |
| 20260905104654 | 67 | 327 | 3.0 | 10.0 | 0.00 | 0.21 | 0.00 | 74 | 1019.7 |
| 20260905103909 | 67 | 306 | 3.0 | 10.0 | 0.00 | 0.21 | 0.00 | 74 | 1019.7 |
| 20260905103641 | 67 | 229 | 3.0 | 10.0 | 0.00 | 0.21 | 0.00 | 74 | 1019.6 |
| 20260905103148 | 67 | 226 | 4.0 | 13.0 | 0.00 | 0.21 | 0.00 | 75 | 1019.6 |
| 20260905102403 | 67 | 234 | 4.0 | 13.0 | 0.00 | 0.21 | 0.00 | 73 | 1019.5 |
| 20260905102144 | 67 | 338 | 3.0 | 11.0 | 0.00 | 0.21 | 0.00 | 74 | 1019.5 |
| 20260905101402 | 67 | 266 | 3.0 | 9.0 | 0.00 | 0.21 | 0.00 | 75 | 1019.6 |